TimeCDT,TemperatureF,Dew PointF,Humidity,Sea Level PressureIn,VisibilityMPH,Wind Direction,Wind SpeedMPH,Gust SpeedMPH,PrecipitationIn,Events,Conditions,WindDirDegrees,DateUTC
12:53 AM,39.9,23.0,51,30.05,10.0,West,3.5,-,N/A,,Clear,280,2013-05-04 05:53:00
1:53 AM,41.0,23.0,49,30.05,10.0,WNW,6.9,-,N/A,,Clear,290,2013-05-04 06:53:00
2:53 AM,43.0,21.9,43,30.03,10.0,WNW,8.1,-,N/A,,Clear,290,2013-05-04 07:53:00
3:53 AM,39.0,21.9,50,30.02,10.0,West,9.2,-,N/A,,Clear,280,2013-05-04 08:53:00
4:53 AM,37.9,21.0,51,30.02,10.0,WNW,10.4,-,N/A,,Clear,290,2013-05-04 09:53:00
5:53 AM,35.1,21.0,57,30.03,10.0,Calm,Calm,-,N/A,,Clear,0,2013-05-04 10:53:00
6:53 AM,33.1,19.9,59,30.04,10.0,NNW,6.9,-,N/A,,Clear,330,2013-05-04 11:53:00
7:53 AM,39.9,23.0,51,30.06,10.0,NNW,13.8,-,N/A,,Clear,340,2013-05-04 12:53:00
8:53 AM,45.0,24.1,44,30.06,10.0,North,12.7,-,N/A,,Clear,360,2013-05-04 13:53:00
9:53 AM,48.9,19.0,31,30.06,10.0,NNE,15.0,-,N/A,,Clear,20,2013-05-04 14:53:00
10:53 AM,53.1,19.0,26,30.06,10.0,North,11.5,-,N/A,,Clear,360,2013-05-04 15:53:00
11:53 AM,57.9,21.0,24,30.06,10.0,North,13.8,24.2,N/A,,Clear,360,2013-05-04 16:53:00
12:53 PM,61.0,21.9,22,30.05,10.0,North,16.1,21.9,N/A,,Clear,360,2013-05-04 17:53:00
1:53 PM,63.0,19.9,19,30.02,10.0,NNE,19.6,31.1,N/A,,Clear,20,2013-05-04 18:53:00
2:53 PM,66.0,19.0,17,30.00,10.0,North,20.7,32.2,N/A,,Clear,360,2013-05-04 19:53:00
3:53 PM,66.9,19.0,16,29.99,10.0,North,20.7,29.9,N/A,,Clear,350,2013-05-04 20:53:00
4:53 PM,68.0,15.1,13,29.98,10.0,NNE,18.4,31.1,N/A,,Clear,20,2013-05-04 21:53:00
5:53 PM,66.9,15.1,14,29.99,10.0,North,24.2,29.9,N/A,,Clear,10,2013-05-04 22:53:00
6:53 PM,64.9,7.0,10,30.01,10.0,North,19.6,27.6,N/A,,Clear,10,2013-05-04 23:53:00
7:53 PM,62.1,7.0,11,30.02,10.0,NNE,17.3,24.2,N/A,,Clear,30,2013-05-05 00:53:00
8:53 PM,55.9,10.0,16,30.05,10.0,NNE,9.2,-,N/A,,Clear,30,2013-05-05 01:53:00
9:53 PM,52.0,12.9,21,30.09,10.0,NNE,9.2,-,N/A,,Clear,30,2013-05-05 02:53:00
10:53 PM,46.9,15.1,28,30.11,10.0,NNE,8.1,-,N/A,,Clear,20,2013-05-05 03:53:00
11:53 PM,46.0,18.0,33,30.12,10.0,NE,8.1,-,N/A,,Clear,40,2013-05-05 04:53:00